Location: Balmoral
(33.0667°S, 151.5833°E)
Time: 03:43:58
(UTC+00:00)

Cosmos 1933 Rocket - Pass Details

Date: 18 September 2020
Orbit: 605 x 631 km, 82.5° (Epoch: 23 October)

Event Time Altitude Azimuth Distance (km) Brightness Sun altitude
Exits shadow 18:08:00 12° 360° (N) 1,818 5.8 -21.5°
Maximum altitude 18:11:59 78° 85° (E) 634 3.6 -20.7°
Drops below altitude 10° 18:16:24 10° 171° (S) 1,995 6.4 -19.8°
Sets 18:18:39 0° 172° (S) 2,912 7.3 -19.3°
